Location: Condor
(52.3263°N, 114.5541°W)
Time: 22:20:01
(UTC+00:00)

Oscar 19 - Pass Details

Date: 09 December 2023
Orbit: 771 x 789 km, 98.9° (Epoch: 04 March)

Event Time Altitude Azimuth Distance (km) Brightness Sun altitude
Rises 01:05:56 0° 224° (SW) 3,238 15.0 -14.3°
Reaches altitude 10° 01:10:02 10° 257° (WSW) 2,320 14.5 -14.9°
Maximum altitude 01:11:43 12° 276° (W) 2,217 14.0 -15.1°
Drops below altitude 10° 01:13:25 10° 296° (WNW) 2,328 13.8 -15.4°
Sets 01:17:35 0° 329° (NNW) 3,266 14.1 -16.0°
